• Join FlightAware (Why Join?)
  • Login
  • US Flag 
07:10AM EDT


 

Airport Tracker/Info


-or-


 

Live Flight TrackerFlight Track Log ✈ SWA1377 ✈ 16-Apr-2013 ✈ KBUF - KBWI

Flight Track Log - Related Links

Times and Time Zones

All times are in EDT time to prevent confusion due to time zone crossing. See the SWA1377 flight status page for this flight to view local times or setup timezone preferences in your user account.

Time Position Orientation Groundspeed Altitude Reporting Facility
EDT Latitude Longitude Course Direction KTS MPH feet Rate Location/Type
12:27PM 42.8586 -78.7678 198° South 203 234 7,300  Level Cleveland Center
12:28PM 42.7917 -78.7469 167° South 257 296 10,900 3,420 Climbing Cleveland Center
12:29PM 42.7058 -78.7325 173° South 285 328 14,200 3,060 Climbing Cleveland Center
12:30PM 42.6097 -78.7156 173° South 324 373 17,100 3,360 Climbing Cleveland Center
12:31PM 42.5094 -78.6989 173° South 350 403 21,000 2,940 Climbing Cleveland Center
12:32PM 42.4069 -78.6767 171° South 364 419 23,000 960 Climbing Cleveland Center
12:33PM 42.3044 -78.6600 173° South 371 427 23,000  Level Cleveland Center
12:34PM 42.2000 -78.6381 171° South 371 427 23,000  Level Cleveland Center
12:35PM 42.1011 -78.5878 159° South 371 427 23,000  Level Cleveland Center
12:36PM 42.0158 -78.4842 138° Southeast 382 440 23,000  Level Cleveland Center
12:37PM 41.9367 -78.3781 135° Southeast 394 453 23,000  Level Cleveland Center
12:38PM 41.8556 -78.2719 136° Southeast 400 460 23,000  Level Cleveland Center
12:39PM 41.7439 -78.1217 135° Southeast 409 471 23,000  Level New York Center
12:40PM 41.6628 -78.0156 136° Southeast 414 476 23,000  Level New York Center
12:42PM 41.5839 -77.9100 135° Southeast 409 471 23,000  Level New York Center
12:43PM 41.5028 -77.8042 136° Southeast 409 471 23,000  Level New York Center
12:43PM 41.4233 -77.6992 135° Southeast 409 471 23,000 -480 Level New York Center
12:44PM 41.3461 -77.5972 135° Southeast 403 464 22,100 -960 Descending New York Center
12:45PM 41.2703 -77.4983 136° Southeast 396 456 21,100 -960 Descending New York Center
12:46PM 41.1925 -77.3997 136° Southeast 396 456 20,200 -960 Descending New York Center
12:47PM 41.1147 -77.3011 136° Southeast 396 456 19,200 -1,020 Descending New York Center
12:48PM 41.0403 -77.2114 138° Southeast 385 443 18,200 -900 Descending New York Center
12:49PM 40.9706 -77.1169 134° Southeast 371 427 17,500 -900 Descending New York Center
12:50PM 40.8983 -77.0250 136° Southeast 366 421 16,500 -1,020 Descending New York Center
12:51PM 40.8281 -76.9336 135° Southeast 361 415 15,500 -780 Descending New York Center
12:52PM 40.7653 -76.8567 137° Southeast 356 410 15,000 -300 Descending New York Center
12:53PM 40.6925 -76.7708 138° Southeast 356 410 15,000  Level New York Center
12:54PM 40.6161 -76.6764 137° Southeast 348 400 15,000  Level New York Center
12:55PM 40.5531 -76.6000 137° Southeast 348 400 15,000  Level New York Center
12:57PM 40.4978 -76.4972 125° Southeast 348 400 15,000  Level New York Center
12:57PM 40.4367 -76.3803 124° Southeast 348 400 15,000  Level New York Center
12:59PM 40.3700 -76.2931 135° Southeast 353 406 15,000  Level New York Center
01:00PM 40.2789 -76.2803 174° South 316 364 15,000  Level New York Center
01:00PM 40.1972 -76.2875 184° South 324 373 15,000  Level New York Center
01:01PM 40.0947 -76.2928 182° South 331 381 15,000 -180 Level New York Center
01:03PM 40.0083 -76.3106 189° South 331 381 14,700 -780 Descending New York Center
01:05PM 39.8167 -76.3833 196° South 305 351 12,500 -1,020 Descending Potomac TRACON
01:06PM 39.7500 -76.4167 201° Southwest 301 346 11,500 -1,140 Descending Potomac TRACON
01:07PM 39.6667 -76.4500 197° South 293 337 10,300 -1,260 Descending Potomac TRACON
01:08PM 39.6167 -76.5000 218° Southwest 267 307 9,200 -1,320 Descending Potomac TRACON
01:09PM 39.5667 -76.5667 226° Southwest 256 295 7,900 -1,440 Descending Potomac TRACON
01:10PM 39.5167 -76.6333 226° Southwest 256 295 6,400 -1,320 Descending Potomac TRACON
01:11PM 39.4667 -76.7000 226° Southwest 245 282 5,300 -1,200 Descending Potomac TRACON
01:12PM 39.4167 -76.7667 226° Southwest 232 267 4,000 -660 Descending Potomac TRACON
01:13PM 39.3833 -76.8333 237° Southwest 225 259 4,000  Level Potomac TRACON
01:14PM 39.3500 -76.8833 229° Southwest 213 245 4,000 -300 Level Potomac TRACON
01:15PM 39.3000 -76.9333 218° Southwest 202 232 3,500 -540 Descending Potomac TRACON
01:16PM 39.2500 -76.9333 180° South 207 238 3,000 -780 Descending Potomac TRACON
01:17PM 39.2000 -76.9000 153° Southeast 223 257 2,000 -540 Descending Potomac TRACON
01:18PM 39.1833 -76.8333 108° East 183 211 2,000 -300 Level Potomac TRACON
01:19PM 39.1833 -76.7833 90° East 170 196 1,500 -660 Descending Potomac TRACON
01:20PM 39.1833 -76.7333 90° East 140 161 800 -720 Descending Potomac TRACON